"FRM_AIS_EDR_2243.DAT           ",2005-10-12T18:42:41.11 ,"1/0077222556.05884",    0,    0,   91631,"AIS","B1","B1","B1","B1","PISd",0,0,0,0,"B1", 0,15,   0, 0,    0,"AIS","N/A    ","OK ","OK ",    001177.081,    -081.117,    -104.695,    0002.149,    0077.102
"FRM_AIS_EDR_2243.DAT           ",2005-10-12T18:42:48.66 ,"1/0077222563.41483",    0,    1,   91631,"AIS","B1","B1","B1","B1","PISd",0,0,0,0,"B1", 0,15,   0, 0,    0,"AIS","N/A    ","OK ","OK ",    001166.698,    -081.420,    -103.889,    0002.205,    0076.781
"FRM_AIS_EDR_2243.DAT           ",2005-10-12T18:42:56.20 ,"1/0077222571.11547",    0,    2,   91631,"AIS","B1","B1","B1","B1","PISd",0,0,0,0,"B1", 0,15,   0, 0,    0,"AIS","N/A    ","OK ","OK ",    001156.345,    -081.722,    -103.019,    0002.265,    0076.458
"FRM_AIS_EDR_2243.DAT           ",2005-10-12T18:43:03.74 ,"1/0077222578.47146",    0,    3,   91631,"AIS","B1","B1","B1","B1","PISd",0,0,0,0,"B1", 0,15,   0, 0,    0,"AIS","N/A    ","OK ","OK ",    001146.025,    -082.023,    -102.076,    0002.330,    0076.135
"FRM_AIS_EDR_2243.DAT           ",2005-10-12T18:43:11.29 ,"1/0077222586.17209",    0,    4,   91631,"AIS","B1","B1","B1","B1","PISd",0,0,0,0,"B1", 0,15,   0, 0,    0,"AIS","N/A    ","OK ","OK ",    001135.735,    -082.323,    -101.053,    0002.400,    0075.810
"FRM_AIS_EDR_2243.DAT           ",2005-10-12T18:43:18.83 ,"1/0077222593.52809",    0,    5,   91631,"AIS","B1","B1","B1","B1","PISd",0,0,0,0,"B1", 0,15,   0, 0,    0,"AIS","N/A    ","OK ","OK ",    001125.479,    -082.622,    -099.940,    0002.476,    0075.483
"FRM_AIS_EDR_2243.DAT           ",2005-10-12T18:43:26.37 ,"1/0077222601.22872",    0,    6,   91631,"AIS","B1","B1","B1","B1","PISd",0,0,0,0,"B1", 0,15,   0, 0,    0,"AIS","N/A    ","OK ","OK ",    001115.255,    -082.919,    -098.725,    0002.559,    0075.155
"FRM_AIS_EDR_2243.DAT           ",2005-10-12T18:43:33.92 ,"1/0077222608.58471",    0,    7,   91631,"AIS","B1","B1","B1","B1","PISd",0,0,0,0,"B1", 0,15,   0, 0,    0,"AIS","N/A    ","OK ","OK ",    001105.064,    -083.213,    -097.397,    0002.650,    0074.825
"FRM_AIS_EDR_2243.DAT           ",2005-10-12T18:43:41.46 ,"1/0077222616.28535",    0,    8,   91631,"AIS","B1","B1","B1","B1","PISd",0,0,0,0,"B1", 0,15,   0, 0,    0,"AIS","N/A    ","OK ","OK ",    001094.907,    -083.505,    -095.939,    0002.749,    0074.494
"FRM_AIS_EDR_2243.DAT           ",2005-10-12T18:43:49.00 ,"1/0077222623.64134",    0,    9,   91631,"AIS","B1","B1","B1","B1","PISd",0,0,0,0,"B1", 0,15,   0, 0,    0,"AIS","N/A    ","OK ","OK ",    001084.784,    -083.793,    -094.336,    0002.858,    0074.162
"FRM_AIS_EDR_2243.DAT           ",2005-10-12T18:43:56.55 ,"1/0077222631.34198",    0,   10,   91631,"AIS","B1","B1","B1","B1","PISd",0,0,0,0,"B1", 0,15,   0, 0,    0,"AIS","N/A    ","OK ","OK ",    001074.696,    -084.077,    -092.567,    0002.978,    0073.828
"FRM_AIS_EDR_2243.DAT           ",2005-10-12T18:44:04.09 ,"1/0077222639.04261",    0,   11,   91631,"AIS","B1","B1","B1","B1","PISd",0,0,0,0,"B1", 0,15,   0, 0,    0,"AIS","N/A    ","OK ","OK ",    001064.643,    -084.356,    -090.610,    0003.111,    0073.492
"FRM_AIS_EDR_2243.DAT           ",2005-10-12T18:44:11.63 ,"1/0077222646.39860",    0,   12,   91631,"AIS","B1","B1","B1","B1","PISd",0,0,0,0,"B1", 0,15,   0, 0,    0,"AIS","N/A    ","OK ","OK ",    001054.626,    -084.629,    -088.439,    0003.257,    0073.155
"FRM_AIS_EDR_2243.DAT           ",2005-10-12T18:44:19.18 ,"1/0077222654.09924",    0,   13,   91631,"AIS","B1","B1","B1","B1","PISd",0,0,0,0,"B1", 0,15,   0, 0,    0,"AIS","N/A    ","OK ","OK ",    001044.645,    -084.894,    -086.026,    0003.420,    0072.817
"FRM_AIS_EDR_2243.DAT           ",2005-10-12T18:44:26.72 ,"1/0077222661.45523",    0,   14,   91631,"AIS","B1","B1","B1","B1","PISd",0,0,0,0,"B1", 0,15,   0, 0,    0,"AIS","N/A    ","OK ","OK ",    001034.701,    -085.150,    -083.339,    0003.601,    0072.477
"FRM_AIS_EDR_2243.DAT           ",2005-10-12T18:44:34.26 ,"1/0077222669.15586",    0,   15,   91631,"AIS","B1","B1","B1","B1","PISd",0,0,0,0,"B1", 0,15,   0, 0,    0,"AIS","N/A    ","OK ","OK ",    001024.795,    -085.395,    -080.343,    0003.803,    0072.135
"FRM_AIS_EDR_2243.DAT           ",2005-10-12T18:44:41.80 ,"1/0077222676.51186",    0,   16,   91631,"AIS","B1","B1","B1","B1","PISd",0,0,0,0,"B1", 0,15,   0, 0,    0,"AIS","N/A    ","OK ","OK ",    001014.926,    -085.627,    -077.002,    0004.028,    0071.792
"FRM_AIS_EDR_2243.DAT           ",2005-10-12T18:44:49.35 ,"1/0077222684.21249",    0,   17,   91631,"AIS","B1","B1","B1","B1","PISd",0,0,0,0,"B1", 0,15,   0, 0,    0,"AIS","N/A    ","OK ","OK ",    001005.095,    -085.843,    -073.281,    0004.278,    0071.447
"FRM_AIS_EDR_2243.DAT           ",2005-10-12T18:44:56.89 ,"1/0077222691.56848",    0,   18,   91631,"AIS","B1","B1","B1","B1","PISd",0,0,0,0,"B1", 0,15,   0, 0,    0,"AIS","N/A    ","OK ","OK ",    000995.304,    -086.041,    -069.150,    0004.556,    0071.101
"FRM_AIS_EDR_2243.DAT           ",2005-10-12T18:45:04.43 ,"1/0077222699.26912",    0,   19,   91631,"AIS","B1","B1","B1","B1","PISd",0,0,0,0,"B1", 0,15,   0, 0,    0,"AIS","N/A    ","OK ","OK ",    000985.551,    -086.216,    -064.588,    0004.862,    0070.754
"FRM_AIS_EDR_2243.DAT           ",2005-10-12T18:45:11.98 ,"1/0077222706.62511",    0,   20,   91631,"AIS","B1","B1","B1","B1","PISd",0,0,0,0,"B1", 0,15,   0, 0,    0,"AIS","N/A    ","OK ","OK ",    000975.839,    -086.365,    -059.594,    0005.197,    0070.404
"FRM_AIS_EDR_2243.DAT           ",2005-10-12T18:45:19.52 ,"1/0077222714.32574",    0,   21,   91631,"AIS","B1","B1","B1","B1","PISd",0,0,0,0,"B1", 0,15,   0, 0,    0,"AIS","N/A    ","OK ","OK ",    000966.167,    -086.485,    -054.191,    0005.559,    0070.054
"FRM_AIS_EDR_2243.DAT           ",2005-10-12T18:45:27.06 ,"1/0077222722.02638",    0,   22,   91631,"AIS","B1","B1","B1","B1","PISd",0,0,0,0,"B1", 0,15,   0, 0,    0,"AIS","N/A    ","OK ","OK ",    000956.537,    -086.571,    -048.435,    0005.945,    0069.701
"FRM_AIS_EDR_2243.DAT           ",2005-10-12T18:45:34.61 ,"1/0077222729.38237",    0,   23,   91631,"AIS","B1","B1","B1","B1","PISd",0,0,0,0,"B1", 0,15,   0, 0,    0,"AIS","N/A    ","OK ","OK ",    000946.948,    -086.621,    -042.419,    0006.348,    0069.347
"FRM_AIS_EDR_2243.DAT           ",2005-10-12T18:45:42.15 ,"1/0077222737.08300",    0,   24,   91631,"AIS","B1","B1","B1","B1","PISd",0,0,0,0,"B1", 0,15,   0, 0,    0,"AIS","N/A    ","OK ","OK ",    000937.401,    -086.632,    -036.264,    0006.760,    0068.992
"FRM_AIS_EDR_2243.DAT           ",2005-10-12T18:45:49.69 ,"1/0077222744.43900",    0,   25,   91631,"AIS","B1","B1","B1","B1","PISd",0,0,0,0,"B1", 0,15,   0, 0,    0,"AIS","N/A    ","OK ","OK ",    000927.897,    -086.605,    -030.112,    0007.173,    0068.635
"FRM_AIS_EDR_2243.DAT           ",2005-10-12T18:45:57.24 ,"1/0077222752.13963",    0,   26,   91631,"AIS","B1","B1","B1","B1","PISd",0,0,0,0,"B1", 0,15,   0, 0,    0,"AIS","N/A    ","OK ","OK ",    000918.436,    -086.538,    -024.103,    0007.575,    0068.277
"FRM_AIS_EDR_2243.DAT           ",2005-10-12T18:46:04.78 ,"1/0077222759.49562",    0,   27,   91631,"AIS","B1","B1","B1","B1","PISd",0,0,0,0,"B1", 0,15,   0, 0,    0,"AIS","N/A    ","OK ","OK ",    000909.019,    -086.434,    -018.358,    0007.960,    0067.917
"FRM_AIS_EDR_2243.DAT           ",2005-10-12T18:46:12.32 ,"1/0077222767.19626",    0,   28,   91631,"AIS","B1","B1","B1","B1","PISd",0,0,0,0,"B1", 0,15,   0, 0,    0,"AIS","N/A    ","OK ","OK ",    000899.647,    -086.295,    -012.968,    0008.321,    0067.555
"FRM_AIS_EDR_2243.DAT           ",2005-10-12T18:46:19.87 ,"1/0077222774.55225",    0,   29,   91631,"AIS","B1","B1","B1","B1","PISd",0,0,0,0,"B1", 0,15,   0, 0,    0,"AIS","N/A    ","OK ","OK ",    000890.319,    -086.125,    -007.989,    0008.656,    0067.192
"FRM_AIS_EDR_2243.DAT           ",2005-10-12T18:46:27.41 ,"1/0077222782.25288",    0,   30,   91631,"AIS","B1","B1","B1","B1","PISd",0,0,0,0,"B1", 0,15,   0, 0,    0,"AIS","N/A    ","OK ","OK ",    000881.037,    -085.927,    -003.442,    0008.961,    0066.827
"FRM_AIS_EDR_2243.DAT           ",2005-10-12T18:46:34.95 ,"1/0077222789.60888",    0,   31,   91631,"AIS","B1","B1","B1","B1","PISd",0,0,0,0,"B1", 0,15,   0, 0,    0,"AIS","N/A    ","OK ","OK ",    000871.801,    -085.705,    0000.675,    0009.237,    0066.461
"FRM_AIS_EDR_2243.DAT           ",2005-10-12T18:46:42.50 ,"1/0077222797.30951",    0,   32,   91631,"AIS","B1","B1","B1","B1","PISd",0,0,0,0,"B1", 0,15,   0, 0,    0,"AIS","N/A    ","OK ","OK ",    000862.612,    -085.462,    0004.383,    0009.486,    0066.093
"FRM_AIS_EDR_2243.DAT           ",2005-10-12T18:46:50.04 ,"1/0077222805.01015",    0,   33,   91631,"AIS","B1","B1","B1","B1","PISd",0,0,0,0,"B1", 0,15,   0, 0,    0,"AIS","N/A    ","OK ","OK ",    000853.471,    -085.200,    0007.711,    0009.710,    0065.724
"FRM_AIS_EDR_2243.DAT           ",2005-10-12T18:46:57.58 ,"1/0077222812.36614",    0,   34,   91631,"AIS","B1","B1","B1","B1","PISd",0,0,0,0,"B1", 0,15,   0, 0,    0,"AIS","N/A    ","OK ","OK ",    000844.377,    -084.922,    0010.696,    0009.911,    0065.352
"FRM_AIS_EDR_2243.DAT           ",2005-10-12T18:47:05.13 ,"1/0077222820.06677",    0,   35,   91631,"AIS","B1","B1","B1","B1","PISd",0,0,0,0,"B1", 0,15,   0, 0,    0,"AIS","N/A    ","OK ","OK ",    000835.332,    -084.630,    0013.374,    0010.092,    0064.980
"FRM_AIS_EDR_2243.DAT           ",2005-10-12T18:47:12.67 ,"1/0077222827.42277",    0,   36,   91631,"AIS","B1","B1","B1","B1","PISd",0,0,0,0,"B1", 0,15,   0, 0,    0,"AIS","N/A    ","OK ","OK ",    000826.336,    -084.327,    0015.778,    0010.254,    0064.606
"FRM_AIS_EDR_2243.DAT           ",2005-10-12T18:47:20.21 ,"1/0077222835.12340",    0,   37,   91631,"AIS","B1","B1","B1","B1","PISd",0,0,0,0,"B1", 0,15,   0, 0,    0,"AIS","N/A    ","OK ","OK ",    000817.390,    -084.012,    0017.941,    0010.400,    0064.230
"FRM_AIS_EDR_2243.DAT           ",2005-10-12T18:47:27.76 ,"1/0077222842.47939",    0,   38,   91631,"AIS","B1","B1","B1","B1","PISd",0,0,0,0,"B1", 0,15,   0, 0,    0,"AIS","N/A    ","OK ","OK ",    000808.494,    -083.689,    0019.892,    0010.533,    0063.853
"FRM_AIS_EDR_2243.DAT           ",2005-10-12T18:47:35.30 ,"1/0077222850.18003",    0,   39,   91631,"AIS","B1","B1","B1","B1","PISd",0,0,0,0,"B1", 0,15,   0, 0,    0,"AIS","N/A    ","OK ","OK ",    000799.649,    -083.357,    0021.655,    0010.652,    0063.474
"FRM_AIS_EDR_2243.DAT           ",2005-10-12T18:47:42.84 ,"1/0077222857.53602",    0,   40,   91631,"AIS","B1","B1","B1","B1","PISd",0,0,0,0,"B1", 0,15,   0, 0,    0,"AIS","N/A    ","OK ","OK ",    000790.856,    -083.019,    0023.254,    0010.761,    0063.093
"FRM_AIS_EDR_2243.DAT           ",2005-10-12T18:47:50.39 ,"1/0077222865.23665",    0,   41,   91631,"AIS","B1","B1","B1","B1","PISd",0,0,0,0,"B1", 0,15,   0, 0,    0,"AIS","N/A    ","OK ","OK ",    000782.115,    -082.673,    0024.707,    0010.860,    0062.711
"FRM_AIS_EDR_2243.DAT           ",2005-10-12T18:47:57.93 ,"1/0077222872.59265",    0,   42,   91631,"AIS","B1","B1","B1","B1","PISd",0,0,0,0,"B1", 0,15,   0, 0,    0,"AIS","N/A    ","OK ","OK ",    000773.426,    -082.322,    0026.032,    0010.950,    0062.328
"FRM_AIS_EDR_2243.DAT           ",2005-10-12T18:48:05.47 ,"1/0077222880.29328",    0,   43,   91631,"AIS","B1","B1","B1","B1","PISd",0,0,0,0,"B1", 0,15,   0, 0,    0,"AIS","N/A    ","OK ","OK ",    000764.792,    -081.965,    0027.244,    0011.033,    0061.942
"FRM_AIS_EDR_2243.DAT           ",2005-10-12T18:48:13.01 ,"1/0077222887.64927",    0,   44,   91631,"AIS","B1","B1","B1","B1","PISd",0,0,0,0,"B1", 0,15,   0, 0,    0,"AIS","N/A    ","OK ","OK ",    000756.211,    -081.604,    0028.354,    0011.109,    0061.556
"FRM_AIS_EDR_2243.DAT           ",2005-10-12T18:48:20.56 ,"1/0077222895.34991",    0,   45,   91631,"AIS","B1","B1","B1","B1","PISd",0,0,0,0,"B1", 0,15,   0, 0,    0,"AIS","N/A    ","OK ","OK ",    000747.685,    -081.238,    0029.375,    0011.179,    0061.167
"FRM_AIS_EDR_2243.DAT           ",2005-10-12T18:48:28.10 ,"1/0077222903.05054",    0,   46,   91631,"AIS","B1","B1","B1","B1","PISd",0,0,0,0,"B1", 0,15,   0, 0,    0,"AIS","N/A    ","OK ","OK ",    000739.214,    -080.868,    0030.316,    0011.244,    0060.777
"FRM_AIS_EDR_2243.DAT           ",2005-10-12T18:48:35.64 ,"1/0077222910.40653",    0,   47,   91631,"AIS","B1","B1","B1","B1","PISd",0,0,0,0,"B1", 0,15,   0, 0,    0,"AIS","N/A    ","OK ","OK ",    000730.799,    -080.494,    0031.185,    0011.304,    0060.386
"FRM_AIS_EDR_2243.DAT           ",2005-10-12T18:48:43.19 ,"1/0077222918.10717",    0,   48,   91631,"AIS","B1","B1","B1","B1","PISd",0,0,0,0,"B1", 0,15,   0, 0,    0,"AIS","N/A    ","OK ","OK ",    000722.441,    -080.116,    0031.989,    0011.359,    0059.993
"FRM_AIS_EDR_2243.DAT           ",2005-10-12T18:48:50.73 ,"1/0077222925.46316",    0,   49,   91631,"AIS","B1","B1","B1","B1","PISd",0,0,0,0,"B1", 0,15,   0, 0,    0,"AIS","N/A    ","OK ","OK ",    000714.140,    -079.734,    0032.736,    0011.411,    0059.598
"FRM_AIS_EDR_2243.DAT           ",2005-10-12T18:48:58.27 ,"1/0077222933.16379",    0,   50,   91631,"AIS","B1","B1","B1","B1","PISd",0,0,0,0,"B1", 0,15,   0, 0,    0,"AIS","N/A    ","OK ","OK ",    000705.897,    -079.350,    0033.430,    0011.459,    0059.202
"FRM_AIS_EDR_2243.DAT           ",2005-10-12T18:49:05.82 ,"1/0077222940.51979",    0,   51,   91631,"AIS","B1","B1","B1","B1","PISd",0,0,0,0,"B1", 0,15,   0, 0,    0,"AIS","N/A    ","OK ","OK ",    000697.712,    -078.962,    0034.076,    0011.505,    0058.804
"FRM_AIS_EDR_2243.DAT           ",2005-10-12T18:49:13.36 ,"1/0077222948.22042",    0,   52,   91631,"AIS","B1","B1","B1","B1","PISd",0,0,0,0,"B1", 0,15,   0, 0,    0,"AIS","N/A    ","OK ","OK ",    000689.587,    -078.572,    0034.680,    0011.547,    0058.405
"FRM_AIS_EDR_2243.DAT           ",2005-10-12T18:49:20.90 ,"1/0077222955.57641",    0,   53,   91631,"AIS","B1","B1","B1","B1","PISd",0,0,0,0,"B1", 0,15,   0, 0,    0,"AIS","N/A    ","OK ","OK ",    000681.521,    -078.178,    0035.244,    0011.587,    0058.004
"FRM_AIS_EDR_2243.DAT           ",2005-10-12T18:49:28.45 ,"1/0077222963.27705",    0,   54,   91631,"AIS","B1","B1","B1","B1","PISd",0,0,0,0,"B1", 0,15,   0, 0,    0,"AIS","N/A    ","OK ","OK ",    000673.516,    -077.782,    0035.773,    0011.624,    0057.601
"FRM_AIS_EDR_2243.DAT           ",2005-10-12T18:49:35.99 ,"1/0077222970.63304",    0,   55,   91631,"AIS","B1","B1","B1","B1","PISd",0,0,0,0,"B1", 0,15,   0, 0,    0,"AIS","N/A    ","OK ","OK ",    000665.572,    -077.383,    0036.269,    0011.659,    0057.197
"FRM_AIS_EDR_2243.DAT           ",2005-10-12T18:49:43.53 ,"1/0077222978.33367",    0,   56,   91631,"AIS","B1","B1","B1","B1","PISd",0,0,0,0,"B1", 0,15,   0, 0,    0,"AIS","N/A    ","OK ","OK ",    000657.689,    -076.982,    0036.735,    0011.692,    0056.792
"FRM_AIS_EDR_2243.DAT           ",2005-10-12T18:49:51.08 ,"1/0077222986.03431",    0,   57,   91631,"AIS","B1","B1","B1","B1","PISd",0,0,0,0,"B1", 0,15,   0, 0,    0,"AIS","N/A    ","OK ","OK ",    000649.869,    -076.578,    0037.173,    0011.723,    0056.385
"FRM_AIS_EDR_2243.DAT           ",2005-10-12T18:49:58.62 ,"1/0077222993.39030",    0,   58,   91631,"AIS","B1","B1","B1","B1","PISd",0,0,0,0,"B1", 0,15,   0, 0,    0,"AIS","N/A    ","OK ","OK ",    000642.113,    -076.172,    0037.587,    0011.753,    0055.976
"FRM_AIS_EDR_2243.DAT           ",2005-10-12T18:50:06.16 ,"1/0077223001.09093",    0,   59,   91631,"AIS","B1","B1","B1","B1","PISd",0,0,0,0,"B1", 0,15,   0, 0,    0,"AIS","N/A    ","OK ","OK ",    000634.419,    -075.764,    0037.977,    0011.781,    0055.566
"FRM_AIS_EDR_2243.DAT           ",2005-10-12T18:50:13.71 ,"1/0077223008.44693",    0,   60,   91631,"AIS","B1","B1","B1","B1","PISd",0,0,0,0,"B1", 0,15,   0, 0,    0,"AIS","N/A    ","OK ","OK ",    000626.791,    -075.353,    0038.345,    0011.807,    0055.154
"FRM_AIS_EDR_2243.DAT           ",2005-10-12T18:50:21.25 ,"1/0077223016.14756",    0,   61,   91631,"AIS","B1","B1","B1","B1","PISd",0,0,0,0,"B1", 0,15,   0, 0,    0,"AIS","N/A    ","OK ","OK ",    000619.227,    -074.940,    0038.694,    0011.833,    0054.741
"FRM_AIS_EDR_2243.DAT           ",2005-10-12T18:50:28.79 ,"1/0077223023.50355",    0,   62,   91631,"AIS","B1","B1","B1","B1","PISd",0,0,0,0,"B1", 0,15,   0, 0,    0,"AIS","N/A    ","OK ","OK ",    000611.729,    -074.525,    0039.024,    0011.857,    0054.326
"FRM_AIS_EDR_2243.DAT           ",2005-10-12T18:50:36.34 ,"1/0077223031.20419",    0,   63,   91631,"AIS","B1","B1","B1","B1","PISd",0,0,0,0,"B1", 0,15,   0, 0,    0,"AIS","N/A    ","OK ","OK ",    000604.297,    -074.108,    0039.336,    0011.880,    0053.910
"FRM_AIS_EDR_2243.DAT           ",2005-10-12T18:50:43.88 ,"1/0077223038.56018",    0,   64,   91631,"AIS","B1","B1","B1","B1","PISd",0,0,0,0,"B1", 0,15,   0, 0,    0,"AIS","N/A    ","OK ","OK ",    000596.932,    -073.689,    0039.633,    0011.902,    0053.492
"FRM_AIS_EDR_2243.DAT           ",2005-10-12T18:50:51.42 ,"1/0077223046.26081",    0,   65,   91631,"AIS","B1","B1","B1","B1","PISd",0,0,0,0,"B1", 0,15,   0, 0,    0,"AIS","N/A    ","OK ","OK ",    000589.635,    -073.268,    0039.915,    0011.922,    0053.073
"FRM_AIS_EDR_2243.DAT           ",2005-10-12T18:50:58.97 ,"1/0077223053.61681",    0,   66,   91631,"AIS","B1","B1","B1","B1","PISd",0,0,0,0,"B1", 0,15,   0, 0,    0,"AIS","N/A    ","OK ","OK ",    000582.407,    -072.845,    0040.183,    0011.942,    0052.652
"FRM_AIS_EDR_2243.DAT           ",2005-10-12T18:51:06.51 ,"1/0077223061.31744",    0,   67,   91631,"AIS","B1","B1","B1","B1","PISd",0,0,0,0,"B1", 0,15,   0, 0,    0,"AIS","N/A    ","OK ","OK ",    000575.247,    -072.419,    0040.439,    0011.961,    0052.230
"FRM_AIS_EDR_2243.DAT           ",2005-10-12T18:51:14.05 ,"1/0077223069.01807",    0,   68,   91631,"AIS","B1","B1","B1","B1","PISd",0,0,0,0,"B1", 0,15,   0, 0,    0,"AIS","N/A    ","OK ","OK ",    000568.157,    -071.992,    0040.682,    0011.980,    0051.806
"FRM_AIS_EDR_2243.DAT           ",2005-10-12T18:51:21.59 ,"1/0077223076.37407",    0,   69,   91631,"AIS","B1","B1","B1","B1","PISd",0,0,0,0,"B1", 0,15,   0, 0,    0,"AIS","N/A    ","OK ","OK ",    000561.137,    -071.563,    0040.913,    0011.997,    0051.381
"FRM_AIS_EDR_2243.DAT           ",2005-10-12T18:51:29.14 ,"1/0077223084.07470",    0,   70,   91631,"AIS","B1","B1","B1","B1","PISd",0,0,0,0,"B1", 0,15,   0, 0,    0,"AIS","N/A    ","OK ","OK ",    000554.188,    -071.133,    0041.134,    0012.014,    0050.955
"FRM_AIS_EDR_2243.DAT           ",2005-10-12T18:51:36.68 ,"1/0077223091.43069",    0,   71,   91631,"AIS","B1","B1","B1","B1","PISd",0,0,0,0,"B1", 0,15,   0, 0,    0,"AIS","N/A    ","OK ","OK ",    000547.311,    -070.700,    0041.345,    0012.030,    0050.527
"FRM_AIS_EDR_2243.DAT           ",2005-10-12T18:51:44.22 ,"1/0077223099.13133",    0,   72,   91631,"AIS","B1","B1","B1","B1","PISd",0,0,0,0,"B1", 0,15,   0, 0,    0,"AIS","N/A    ","OK ","OK ",    000540.507,    -070.266,    0041.547,    0012.046,    0050.097
"FRM_AIS_EDR_2243.DAT           ",2005-10-12T18:51:51.77 ,"1/0077223106.48732",    0,   73,   91631,"AIS","B1","B1","B1","B1","PISd",0,0,0,0,"B1", 0,15,   0, 0,    0,"AIS","N/A    ","OK ","OK ",    000533.775,    -069.830,    0041.739,    0012.060,    0049.666
"FRM_AIS_EDR_2243.DAT           ",2005-10-12T18:51:59.31 ,"1/0077223114.18795",    0,   74,   91631,"AIS","B1","B1","B1","B1","PISd",0,0,0,0,"B1", 0,15,   0, 0,    0,"AIS","N/A    ","OK ","OK ",    000527.117,    -069.392,    0041.924,    0012.075,    0049.234
"FRM_AIS_EDR_2243.DAT           ",2005-10-12T18:52:06.85 ,"1/0077223121.54395",    0,   75,   91631,"AIS","B1","B1","B1","B1","PISd",0,0,0,0,"B1", 0,15,   0, 0,    0,"AIS","N/A    ","OK ","OK ",    000520.533,    -068.952,    0042.100,    0012.088,    0048.800
"FRM_AIS_EDR_2243.DAT           ",2005-10-12T18:52:14.40 ,"1/0077223129.24458",    0,   76,   91631,"AIS","B1","B1","B1","B1","PISd",0,0,0,0,"B1", 0,15,   0, 0,    0,"AIS","N/A    ","OK ","OK ",    000514.024,    -068.511,    0042.269,    0012.102,    0048.365
"FRM_AIS_EDR_2243.DAT           ",2005-10-12T18:52:21.94 ,"1/0077223136.60057",    0,   77,   91631,"AIS","B1","B1","B1","B1","PISd",0,0,0,0,"B1", 0,15,   0, 0,    0,"AIS","N/A    ","OK ","OK ",    000507.590,    -068.068,    0042.431,    0012.115,    0047.929
"FRM_AIS_EDR_2243.DAT           ",2005-10-12T18:52:29.48 ,"1/0077223144.30121",    0,   78,   91631,"AIS","B1","B1","B1","B1","PISd",0,0,0,0,"B1", 0,15,   0, 0,    0,"AIS","N/A    ","OK ","OK ",    000501.233,    -067.623,    0042.586,    0012.127,    0047.491
"FRM_AIS_EDR_2243.DAT           ",2005-10-12T18:52:37.03 ,"1/0077223152.00184",    0,   79,   91631,"AIS","B1","B1","B1","B1","PISd",0,0,0,0,"B1", 0,15,   0, 0,    0,"AIS","N/A    ","OK ","OK ",    000494.953,    -067.177,    0042.735,    0012.139,    0047.052
"FRM_AIS_EDR_2243.DAT           ",2005-10-12T18:52:44.57 ,"1/0077223159.35783",    0,   80,   91631,"AIS","B1","B1","B1","B1","PISd",0,0,0,0,"B1", 0,15,   0, 0,    0,"AIS","N/A    ","OK ","OK ",    000488.750,    -066.729,    0042.878,    0012.151,    0046.612
"FRM_AIS_EDR_2243.DAT           ",2005-10-12T18:52:52.11 ,"1/0077223167.05847",    0,   81,   91631,"AIS","B1","B1","B1","B1","PISd",0,0,0,0,"B1", 0,15,   0, 0,    0,"AIS","N/A    ","OK ","OK ",    000482.625,    -066.279,    0043.015,    0012.162,    0046.170
"FRM_AIS_EDR_2243.DAT           ",2005-10-12T18:52:59.66 ,"1/0077223174.41446",    0,   82,   91631,"AIS","B1","B1","B1","B1","PISd",0,0,0,0,"B1", 0,15,   0, 0,    0,"AIS","N/A    ","OK ","OK ",    000476.580,    -065.828,    0043.147,    0012.172,    0045.727
"FRM_AIS_EDR_2243.DAT           ",2005-10-12T18:53:07.20 ,"1/0077223182.11509",    0,   83,   91631,"AIS","B1","B1","B1","B1","PISd",0,0,0,0,"B1", 0,15,   0, 0,    0,"AIS","N/A    ","OK ","OK ",    000470.613,    -065.375,    0043.274,    0012.183,    0045.282
"FRM_AIS_EDR_2243.DAT           ",2005-10-12T18:53:14.74 ,"1/0077223189.47109",    0,   84,   91631,"AIS","B1","B1","B1","B1","PISd",0,0,0,0,"B1", 0,15,   0, 0,    0,"AIS","N/A    ","OK ","OK ",    000464.727,    -064.921,    0043.396,    0012.193,    0044.837
"FRM_AIS_EDR_2243.DAT           ",2005-10-12T18:53:22.29 ,"1/0077223197.17172",    0,   85,   91631,"AIS","B1","B1","B1","B1","PISd",0,0,0,0,"B1", 0,15,   0, 0,    0,"AIS","N/A    ","OK ","OK ",    000458.922,    -064.466,    0043.513,    0012.203,    0044.390
"FRM_AIS_EDR_2243.DAT           ",2005-10-12T18:53:29.83 ,"1/0077223204.52771",    0,   86,   91631,"AIS","B1","B1","B1","B1","PISd",0,0,0,0,"B1", 0,15,   0, 0,    0,"AIS","N/A    ","OK ","OK ",    000453.198,    -064.008,    0043.626,    0012.213,    0043.942
"FRM_AIS_EDR_2243.DAT           ",2005-10-12T18:53:37.37 ,"1/0077223212.22835",    0,   87,   91631,"AIS","B1","B1","B1","B1","PISd",0,0,0,0,"B1", 0,15,   0, 0,    0,"AIS","N/A    ","OK ","OK ",    000447.556,    -063.550,    0043.734,    0012.222,    0043.493
"FRM_AIS_EDR_2243.DAT           ",2005-10-12T18:53:44.92 ,"1/0077223219.58434",    0,   88,   91631,"AIS","B1","B1","B1","B1","PISd",0,0,0,0,"B1", 0,15,   0, 0,    0,"AIS","N/A    ","OK ","OK ",    000441.996,    -063.090,    0043.839,    0012.231,    0043.042
"FRM_AIS_EDR_2243.DAT           ",2005-10-12T18:53:52.46 ,"1/0077223227.28497",    0,   89,   91631,"AIS","B1","B1","B1","B1","PISd",0,0,0,0,"B1", 0,15,   0, 0,    0,"AIS","N/A    ","OK ","OK ",    000436.520,    -062.628,    0043.940,    0012.240,    0042.591
"FRM_AIS_EDR_2243.DAT           ",2005-10-12T18:54:00.00 ,"1/0077223234.64097",    0,   90,   91631,"AIS","B1","B1","B1","B1","PISd",0,0,0,0,"B1", 0,15,   0, 0,    0,"AIS","N/A    ","OK ","OK ",    000431.128,    -062.165,    0044.037,    0012.248,    0042.138